Temp
8 8 8 8 8 8 8 8 9 9 9 9 10 10 10 10 11 12 13 13 14 14 15 15 16 17 17 17 16 16 13 13 14 14 16 16 16 17 17 17 17 17 18 18 18
8 8 8 7 8 8 8 8 8 9 9 9 9 9 10 10 10 10 13 13 13 13 14 15 15 16 16 16 16 15 12 14 14 14 15 16 16 17 17 17 17 17 18 18 18
7 7 8 8 7 7 8 8 8 8 8 9 9 9 9 9 9 11 12 13 12 12 13 14 14 15 15 15 15 13 13 13 15 15 16 15 16 17 17 16 17 18 18 18 18
7 7 7 8 7 7 7 8 8 8 8 8 9 8 8 9 9 10 11 12 13 12 12 12 13 14 13 13 14 14 14 14 15 15 15 15 16 16 16 17 17 17 17 17 17
6 7 7 8 7 7 7 7 8 7 8 8 8 8 8 7 9 10 10 11 12 11 12 12 13 13 11 12 13 12 13 14 14 14 15 15 15 14 15 17 17 17 17 17 16
6 6 6 7 7 7 7 7 7 7 8 8 7 7 7 7 9 10 10 10 10 11 10 11 12 13 12 12 12 12 12 12 13 14 14 14 14 14 15 16 16 16 16 16 16
6 6 6 7 7 7 7 7 7 7 8 7 7 7 6 8 9 9 10 10 10 10 10 10 12 12 12 11 12 11 11 11 11 13 13 14 12 11 14 15 15 15 15 15 15
5 5 6 6 6 7 7 7 7 7 7 7 6 6 6 8 8 8 9 10 9 9 10 10 11 12 11 11 11 10 9 9 11 11 13 13 11 13 14 14 14 15 15 15 15
5 5 6 6 6 6 7 7 7 7 6 6 6 5 6 7 8 9 8 9 10 9 9 10 10 11 10 9 9 9 8 8 10 11 12 11 10 12 12 13 13 14 14 14 15
4 4 5 5 6 6 6 6 6 6 6 5 5 5 6 7 8 9 8 9 9 9 9 9 10 8 8 8 8 8 9 9 9 10 9 10 8 10 13 12 13 13 13 14 15
3 4 5 5 5 5 5 5 5 6 5 6 5 7 7 7 7 8 8 9 9 9 9 9 8 9 9 9 9 8 9 9 8 9 9 9 8 9 11 10 11 13 14 14 15
2 3 5 5 5 5 5 4 6 7 6 6 7 7 8 7 7 7 7 8 8 9 7 8 9 10 9 8 9 9 8 8 9 9 9 8 9 9 10 11 12 13 14 14 14
2 3 4 4 4 4 4 5 6 6 6 5 6 6 7 8 8 7 7 8 8 8 8 8 9 9 9 7 8 8 8 9 9 9 9 8 10 9 10 10 11 13 14 14 13
2 3 3 3 2 4 4 4 5 7 5 5 5 6 7 7 7 8 8 8 8 8 7 8 9 8 8 8 8 8 8 9 9 9 9 8 7 10 11 10 11 14 14 13 12
2 2 3 2 2 3 4 4 4 5 6 6 5 6 7 7 7 6 7 8 6 7 8 8 6 7 8 8 8 9 8 8 7 7 7 9 8 8 8 9 10 12 13 11 11
2 2 2 1 2 3 3 4 4 4 5 5 5 5 5 6 6 5 7 8 7 7 6 6 7 7 7 8 8 6 7 7 8 8 8 8 8 7 8 10 10 12 12 10 10
2 2 2 2 2 2 3 3 4 4 3 5 4 5 6 5 5 6 6 6 6 7 6 5 6 7 7 6 7 8 8 7 8 7 6 6 7 9 9 9 10 11 10 9 10
1 1 1 1 1 1 2 3 5 4 4 5 6 6 6 6 6 5 6 7 7 6 6 7 6 7 6 7 7 7 8 6 5 5 6 5 7 8 8 11 11 10 9 9 9
1 0 1 1 1 1 2 4 4 5 4 4 5 5 5 6 6 7 6 7 7 6 6 6 7 6 6 7 8 6 7 8 6 -0 4 5 6 7 6 7 8 8 9 8 7
0 0 0 1 1 1 0 3 3 4 4 5 5 6 5 5 6 6 5 7 6 7 6 6 6 6 7 8 7 6 7 7 6 7 7 7 6 8 8 6 5 6 7 6 5
0 -1 0 -0 0 -1 0 0 1 4 5 5 4 4 6 5 6 5 5 6 7 7 7 5 6 5 5 5 7 6 7 7 8 5 5 4 6 5 9 7 6 6 6 5 5
-1 -1 0 0 -1 -0 1 1 1 2 3 3 4 4 4 5 5 6 4 7 8 7 6 5 5 4 6 6 6 8 7 7 7 5 4 6 8 9 7 7 7 6 5 4 4
-1 -1 -0 -0 -1 -1 -1 0 1 1 4 3 3 4 4 4 5 5 5 6 7 6 6 6 5 4 4 5 4 5 6 7 7 5 4 6 7 5 6 5 7 5 4 3 4
-1 -2 -1 -1 0 0 -0 1 2 1 3 4 3 3 4 4 5 4 3 4 7 7 7 7 4 6 7 7 5 5 5 6 7 6 7 6 8 8 4 4 3 4 3 2 2
-1 -1 -0 -2 -1 0 1 2 1 2 3 3 3 3 4 3 4 3 5 4 4 6 6 5 4 6 6 5 5 6 7 5 5 7 7 8 7 8 7 4 3 3 2 1 0
-1 -1 -1 -0 -0 0 1 2 2 1 2 3 3 3 3 3 5 4 4 3 4 3 5 4 4 4 5 5 4 5 5 5 6 6 7 7 7 6 4 6 2 3 1 -0 -1
-1 -1 -1 0 -0 0 2 1 3 2 2 4 2 2 3 4 6 6 7 6 4 4 4 4 4 3 5 4 3 4 5 6 5 6 6 6 8 3 0 1 1 1 0 -0 -1
Height
1503 1505 1508 1512 1515 1517 1520 1522 1524 1527 1529 1532 1535 1537 1539 1542 1543 1544 1547 1550 1552 1553 1554 1556 1557 1557 1557 1557 1559 1560 1569 1577 1575 1574 1572 1570 1569 1570 1571 1572 1573 1575 1575 1575 1574
1498 1502 1504 1508 1512 1515 1518 1520 1523 1525 1527 1530 1533 1536 1538 1540 1542 1541 1545 1547 1550 1551 1553 1554 1556 1557 1558 1559 1560 1561 1571 1571 1569 1570 1571 1570 1570 1571 1573 1573 1574 1575 1576 1575 1575
1492 1497 1500 1504 1509 1512 1514 1517 1521 1524 1526 1527 1530 1534 1537 1539 1541 1538 1540 1544 1547 1549 1551 1553 1555 1557 1559 1560 1562 1564 1569 1567 1568 1569 1570 1570 1571 1572 1572 1574 1575 1575 1575 1576 1576
1488 1492 1497 1501 1504 1508 1512 1515 1518 1522 1523 1526 1528 1532 1535 1539 1544 1535 1537 1538 1541 1545 1548 1550 1553 1556 1558 1560 1562 1566 1565 1565 1567 1568 1569 1570 1571 1572 1573 1573 1573 1574 1575 1575 1575
1483 1487 1492 1496 1501 1505 1509 1512 1516 1519 1522 1524 1526 1530 1533 1536 1535 1536 1536 1536 1537 1540 1545 1548 1552 1554 1557 1559 1561 1562 1564 1565 1565 1566 1567 1568 1568 1570 1571 1572 1572 1572 1573 1573 1573
1479 1482 1487 1492 1499 1502 1506 1510 1513 1517 1521 1522 1526 1527 1531 1533 1534 1534 1535 1536 1537 1540 1543 1546 1550 1553 1555 1557 1559 1561 1562 1564 1565 1565 1565 1566 1566 1567 1568 1568 1570 1570 1571 1571 1570
1474 1479 1483 1488 1493 1498 1503 1508 1510 1516 1518 1521 1524 1525 1527 1527 1531 1531 1534 1536 1537 1539 1542 1545 1548 1551 1554 1557 1558 1560 1563 1564 1564 1564 1564 1563 1564 1563 1564 1565 1566 1567 1567 1567 1568
1469 1474 1479 1484 1488 1493 1499 1504 1509 1512 1515 1521 1522 1524 1524 1524 1528 1530 1532 1535 1537 1538 1543 1545 1547 1550 1552 1556 1558 1561 1565 1569 1561 1560 1561 1563 1564 1560 1562 1563 1564 1564 1563 1562 1563
1465 1470 1474 1479 1484 1491 1495 1502 1507 1511 1513 1517 1521 1522 1523 1520 1523 1528 1530 1533 1536 1539 1542 1545 1547 1549 1553 1556 1562 1561 1567 1567 1564 1558 1559 1562 1565 1558 1559 1560 1561 1561 1560 1559 1556
1460 1467 1470 1475 1480 1486 1492 1499 1506 1509 1509 1513 1517 1525 1520 1517 1520 1524 1528 1531 1534 1538 1542 1545 1545 1547 1550 1554 1563 1562 1563 1561 1562 1560 1560 1561 1563 1556 1557 1558 1558 1557 1556 1554 1550
1453 1458 1465 1469 1475 1482 1488 1495 1502 1506 1501 1503 1506 1510 1510 1514 1519 1522 1525 1528 1533 1536 1537 1540 1543 1540 1544 1548 1551 1555 1558 1561 1559 1556 1558 1557 1558 1557 1552 1553 1553 1551 1548 1545 1543
1448 1454 1459 1464 1470 1476 1482 1482 1486 1490 1498 1501 1502 1507 1510 1512 1518 1520 1524 1528 1530 1531 1536 1541 1536 1538 1541 1547 1550 1554 1558 1563 1559 1556 1555 1554 1550 1551 1548 1543 1543 1542 1539 1539 1540
1442 1448 1455 1458 1465 1470 1472 1476 1485 1490 1493 1496 1497 1505 1509 1512 1513 1515 1520 1524 1526 1529 1531 1534 1535 1536 1541 1546 1552 1554 1556 1557 1559 1558 1556 1555 1542 1540 1538 1537 1537 1535 1536 1536 1537
1436 1442 1449 1455 1461 1460 1465 1476 1483 1487 1492 1491 1493 1497 1504 1508 1512 1511 1516 1522 1526 1527 1532 1534 1532 1536 1540 1542 1546 1553 1553 1554 1557 1562 1562 1559 1558 1540 1538 1538 1535 1529 1531 1534 1534
1431 1437 1444 1451 1454 1454 1462 1472 1480 1488 1479 1481 1486 1492 1494 1503 1502 1507 1513 1518 1523 1523 1527 1527 1531 1532 1536 1537 1542 1544 1548 1554 1556 1561 1564 1557 1562 1540 1535 1538 1530 1527 1528 1530 1531
1425 1432 1440 1445 1450 1448 1458 1469 1478 1480 1466 1472 1475 1481 1493 1495 1498 1504 1510 1517 1521 1523 1525 1529 1529 1527 1528 1534 1538 1544 1549 1557 1554 1557 1557 1553 1556 1539 1535 1527 1526 1522 1525 1527 1528
1422 1427 1434 1433 1438 1448 1457 1462 1458 1453 1462 1466 1468 1473 1477 1485 1495 1498 1503 1510 1513 1522 1524 1530 1527 1526 1527 1535 1539 1541 1547 1558 1556 1557 1556 1551 1553 1526 1526 1521 1520 1517 1522 1524 1525
1418 1426 1431 1438 1442 1449 1450 1452 1437 1441 1452 1452 1459 1468 1473 1480 1490 1493 1498 1503 1506 1510 1515 1519 1526 1522 1523 1525 1530 1537 1538 1551 1560 1560 1551 1554 1538 1524 1515 1514 1516 1517 1519 1522 1522
1417 1423 1427 1430 1438 1438 1441 1430 1424 1426 1439 1448 1458 1466 1471 1476 1481 1486 1489 1492 1494 1501 1510 1513 1513 1513 1515 1519 1523 1535 1533 1534 1545 1572 1560 1545 1531 1518 1514 1514 1514 1516 1517 1519 1519
1412 1419 1422 1428 1431 1438 1437 1427 1429 1426 1429 1440 1447 1455 1463 1468 1475 1480 1487 1484 1491 1495 1500 1508 1514 1512 1512 1518 1520 1523 1525 1535 1541 1539 1539 1528 1528 1514 1511 1512 1512 1514 1513 1515 1516
1410 1416 1416 1425 1435 1436 1433 1435 1428 1426 1428 1436 1442 1453 1455 1463 1467 1475 1478 1480 1480 1488 1497 1502 1505 1517 1514 1512 1508 1519 1521 1523 1522 1534 1537 1544 1514 1500 1498 1502 1506 1509 1511 1512 1513
1405 1413 1415 1421 1435 1430 1424 1423 1430 1429 1430 1432 1437 1444 1452 1458 1465 1470 1473 1470 1473 1479 1489 1496 1503 1513 1506 1505 1506 1504 1505 1512 1512 1528 1529 1521 1495 1491 1493 1495 1498 1504 1506 1508 1509
1405 1413 1417 1421 1423 1423 1425 1431 1433 1429 1426 1431 1437 1439 1444 1454 1463 1465 1466 1466 1468 1477 1481 1489 1501 1510 1511 1509 1509 1506 1506 1503 1508 1517 1521 1513 1498 1490 1490 1492 1496 1498 1502 1503 1504
1405 1413 1416 1414 1414 1420 1427 1424 1420 1424 1423 1429 1434 1439 1442 1449 1451 1458 1464 1465 1467 1472 1477 1483 1490 1487 1483 1480 1495 1501 1498 1499 1500 1507 1495 1498 1489 1487 1493 1493 1495 1496 1497 1498 1499
1399 1400 1399 1407 1403 1408 1412 1418 1420 1419 1420 1423 1431 1431 1436 1447 1451 1456 1457 1466 1468 1467 1474 1480 1483 1483 1479 1484 1487 1483 1484 1491 1495 1485 1490 1481 1487 1474 1480 1486 1487 1489 1492 1493 1494
1395 1396 1394 1390 1398 1408 1402 1409 1413 1415 1413 1421 1423 1428 1434 1437 1437 1446 1452 1458 1461 1468 1471 1476 1476 1482 1478 1478 1484 1482 1483 1484 1479 1479 1481 1474 1474 1472 1474 1478 1481 1482 1485 1487 1489
1391 1388 1387 1385 1389 1399 1400 1404 1407 1415 1415 1415 1420 1428 1434 1430 1429 1434 1439 1442 1447 1455 1463 1471 1472 1476 1471 1472 1481 1483 1471 1467 1472 1469 1466 1474 1452 1468 1471 1470 1470 1473 1477 1480 1482
Wind_Speed
24 20 22 19 17 16 15 14 18 22 22 21 19 17 16 15 17 17 16 14 13 10 9 6 5 5 6 6 7 3 4 2 5 5 2 4 2 3 3 3 3 4 4 4 4
27 24 18 23 20 17 16 13 12 15 19 21 21 18 15 13 14 20 19 15 12 11 10 7 5 3 3 4 4 5 3 6 2 4 3 2 4 3 2 3 3 4 5 5 5
25 26 22 19 24 19 17 14 12 12 12 15 19 20 16 11 12 17 20 17 14 12 10 8 4 1 3 2 2 2 4 4 3 3 3 2 2 2 2 2 3 2 3 6 6
25 26 25 24 18 17 21 16 14 12 11 10 13 17 15 12 6 3 4 13 22 20 15 10 6 5 4 4 4 4 3 4 3 5 2 1 1 1 4 1 3 1 4 9 5
25 25 26 27 24 20 16 19 16 13 11 10 10 14 16 14 15 5 2 5 14 22 19 13 11 7 6 5 5 4 4 3 3 3 3 5 7 4 6 8 9 10 9 6 10
25 25 25 25 27 24 21 16 18 15 13 10 11 15 19 11 14 22 7 3 7 21 19 16 11 9 6 3 5 4 5 2 2 3 5 4 5 1 3 2 4 6 9 11 11
25 26 26 28 25 26 23 21 16 19 15 12 13 17 19 22 8 20 21 11 7 17 18 15 10 11 10 4 4 3 2 1 5 5 5 1 6 5 7 9 5 3 5 9 12
24 24 26 27 24 26 24 21 21 19 17 15 14 15 9 16 21 9 16 10 8 15 16 16 13 10 5 8 3 3 4 3 3 5 5 7 8 5 5 6 4 9 14 21 22
25 25 24 27 26 24 24 21 20 18 21 17 16 11 6 10 16 16 14 13 12 13 13 13 13 6 8 6 2 1 3 5 4 7 3 5 4 4 6 6 18 20 20 20 25
28 28 25 24 29 24 23 22 18 18 20 17 13 8 12 12 12 25 15 19 13 13 11 10 9 4 4 5 6 6 4 1 4 3 4 4 7 14 22 16 18 18 18 24 29
32 26 30 26 29 27 24 24 19 12 31 8 14 6 2 13 13 21 20 23 17 11 6 8 5 11 9 6 4 6 3 5 2 4 2 6 6 9 21 13 17 23 26 29 31
33 31 29 35 28 30 30 35 34 9 11 23 9 23 4 15 7 14 23 16 13 8 8 3 12 7 5 5 5 4 5 4 4 5 0 7 12 7 14 17 23 26 28 24 20
33 32 30 32 27 32 37 42 30 14 6 13 20 27 11 17 9 22 26 14 5 9 12 6 4 11 6 4 6 4 6 5 5 3 3 6 13 6 3 12 14 13 16 16 16
32 30 29 28 34 39 41 37 21 22 3 7 11 15 21 14 5 14 31 18 5 12 8 7 6 9 4 10 9 8 6 5 3 2 6 2 6 3 4 6 7 26 13 14 8
30 32 32 31 20 26 39 37 29 19 10 14 12 13 24 20 18 14 31 20 7 6 7 6 8 11 9 7 9 5 6 7 5 3 4 9 6 5 5 4 8 13 12 2 7
29 29 28 29 37 14 34 36 27 8 12 10 12 17 14 15 7 16 17 16 5 4 2 4 1 5 8 4 7 8 6 4 2 3 7 9 8 4 5 10 5 14 8 9 8
31 27 30 27 30 24 25 35 9 13 9 9 8 15 24 11 9 8 17 16 10 8 12 3 4 2 4 5 3 6 8 2 4 5 6 2 8 9 3 6 8 13 6 11 8
31 29 25 29 29 36 28 14 14 9 9 5 10 17 20 13 10 9 17 16 17 3 5 9 5 12 6 7 6 13 11 5 7 5 4 2 8 5 11 13 6 4 15 12 9
30 27 24 26 27 30 20 15 11 13 11 13 14 12 12 14 9 12 17 22 19 16 8 10 8 1 2 5 11 5 14 7 4 3 2 5 6 7 8 10 13 11 16 13 10
31 27 31 29 27 30 7 7 5 3 9 14 12 13 12 20 12 19 15 17 10 21 3 6 2 2 9 4 2 7 8 4 3 6 7 5 6 8 2 4 6 11 17 14 10
28 14 19 28 22 14 4 6 2 7 12 9 8 7 12 11 18 16 12 4 19 20 18 5 3 1 5 9 17 6 8 4 5 5 5 2 6 7 14 9 12 15 16 14 10
24 5 6 20 11 5 5 7 2 8 5 4 4 5 10 17 13 15 13 13 26 23 18 8 4 4 9 1 1 16 10 10 7 4 4 3 10 2 6 10 22 19 19 15 10
18 7 8 25 8 10 1 4 5 7 11 5 3 1 4 11 10 9 11 11 15 16 15 13 5 3 2 2 2 6 9 14 8 2 9 9 7 3 6 11 18 24 20 16 11
11 3 8 23 18 15 4 5 6 11 5 7 6 4 5 6 1 11 8 3 16 21 19 25 5 11 17 7 7 7 11 14 17 10 17 13 17 11 7 10 14 22 21 17 13
11 5 10 7 9 13 16 8 17 8 6 6 2 6 7 5 6 5 9 4 5 18 17 12 8 15 17 5 5 9 13 17 19 25 15 22 19 25 14 10 25 26 21 19 15
8 4 7 3 26 20 11 16 23 7 10 12 7 10 7 9 10 13 13 6 7 5 12 7 8 8 14 15 9 6 7 14 24 23 21 26 20 6 5 19 20 29 27 22 17
12 17 8 4 14 16 14 5 20 12 3 7 9 7 4 8 19 13 20 19 11 12 14 10 8 6 12 7 6 10 23 20 13 20 20 19 28 6 7 13 26 31 29 23 16
Wind_Direction
243 238 233 230 224 225 235 240 235 234 233 234 238 239 243 249 253 240 239 238 237 243 254 265 298 335 13 45 45 52 66 135 182 158 175 23 76 49 69 78 79 71 56 0 10
238 238 236 228 228 222 227 230 232 232 233 231 233 236 241 248 256 258 236 235 236 236 238 243 266 315 60 46 40 67 96 201 186 169 137 80 47 34 96 58 61 81 65 55 37
231 235 232 228 225 223 221 223 226 227 228 228 228 229 233 244 271 270 265 247 232 227 224 229 231 119 106 84 67 120 168 174 174 131 120 90 41 22 57 41 82 97 49 17 0
229 232 230 230 219 220 224 223 223 224 221 222 222 221 216 222 220 196 225 231 219 218 219 214 195 154 140 154 152 129 205 166 153 162 146 286 227 232 205 196 5 219 318 329 338
233 231 232 227 229 222 221 221 221 222 220 210 208 204 197 206 223 192 270 286 218 202 204 193 178 163 166 167 154 143 192 187 220 237 262 261 248 239 225 263 268 280 291 289 316
237 228 229 227 227 224 224 223 219 220 218 208 207 193 200 211 224 224 243 338 213 201 188 186 192 174 148 161 165 150 167 184 256 265 270 254 264 224 119 263 251 252 272 283 300
237 233 226 226 225 225 225 226 224 219 214 210 207 201 205 220 227 230 229 252 205 198 185 183 176 171 153 141 195 118 140 58 210 220 237 244 295 225 237 264 274 274 292 301 311
233 234 230 221 224 219 220 225 222 221 209 208 204 201 224 234 225 230 217 215 180 181 194 188 183 175 157 134 90 117 78 115 267 184 238 154 261 270 257 259 303 311 308 310 309
237 235 230 224 213 218 216 212 217 219 202 202 196 190 227 237 225 202 194 184 180 180 190 203 190 169 144 125 69 339 229 185 301 213 169 171 265 222 156 306 306 302 299 306 304
239 234 233 226 215 206 203 202 206 208 193 191 196 183 232 220 218 200 191 184 169 170 164 178 186 176 140 149 200 195 208 231 195 181 175 217 245 275 283 289 291 290 293 294 296
241 237 235 228 214 204 188 182 181 192 182 189 174 180 242 201 197 197 194 186 188 175 169 185 189 204 188 181 152 151 152 208 273 256 297 242 249 259 287 281 283 286 286 290 297
232 234 234 231 212 197 192 191 195 203 174 200 180 197 160 176 168 192 190 178 183 187 136 166 216 185 170 157 177 162 161 209 284 284 194 297 290 249 260 267 266 276 280 286 302
228 229 229 237 221 197 196 200 193 182 166 191 184 197 176 179 187 187 191 194 167 180 187 198 173 169 160 150 173 194 204 199 231 349 297 316 299 280 291 247 263 258 279 290 317
224 221 222 228 231 204 201 199 190 197 251 175 182 204 192 181 224 196 194 179 196 200 150 234 208 161 174 203 171 218 181 160 176 119 265 98 286 236 240 258 260 277 278 304 352
221 221 217 220 210 206 196 200 195 182 232 169 164 193 184 176 152 186 185 186 172 168 161 205 186 170 190 186 179 211 156 179 162 173 262 241 281 278 121 224 247 258 285 41 87
217 216 213 211 218 156 195 193 183 185 215 171 153 167 157 192 156 143 167 193 168 139 26 205 174 173 169 141 160 143 92 51 110 141 248 209 196 227 188 211 247 249 160 119 104
215 211 211 225 222 210 193 182 201 206 146 172 171 173 175 170 150 171 176 181 174 171 205 135 197 181 134 113 87 163 144 207 193 204 231 235 192 239 205 185 208 255 208 131 114
210 213 208 212 223 220 204 192 214 159 175 147 156 181 186 151 187 177 170 196 208 170 161 194 203 182 187 189 180 195 190 168 193 194 218 127 225 246 208 249 229 163 135 136 123
204 213 221 221 223 225 208 206 218 174 149 156 148 173 182 180 173 173 187 199 197 192 174 190 228 110 167 159 157 177 212 185 85 60 65 221 281 274 217 237 213 169 157 150 133
200 210 220 221 214 209 234 248 182 174 126 156 167 176 177 184 169 184 182 197 190 195 136 206 141 210 190 147 121 173 150 171 199 209 230 236 248 220 253 106 140 174 167 157 147
193 193 233 211 203 222 215 200 175 202 144 161 151 143 191 176 192 188 187 193 188 187 185 151 148 88 125 204 188 172 197 201 159 180 185 241 252 205 219 200 178 187 171 162 157
179 189 205 198 186 236 205 139 302 182 155 115 97 115 167 174 181 197 194 204 199 172 194 174 154 181 202 250 259 220 217 192 195 217 232 228 253 173 208 193 185 171 166 167 167
171 160 173 183 204 214 89 222 196 210 170 124 142 175 158 161 176 181 202 196 180 174 180 172 195 155 300 334 2 204 208 207 207 88 201 212 258 7 160 150 172 166 173 172 173
154 154 208 195 202 197 189 235 194 198 164 146 136 139 134 146 53 181 185 149 184 194 187 170 178 218 226 227 153 203 201 201 200 219 235 223 246 250 182 177 177 179 182 179 181
186 217 178 191 210 196 184 206 220 185 154 143 87 168 156 145 159 171 189 127 187 190 180 173 222 218 241 217 195 211 207 201 207 221 219 242 232 244 218 192 194 190 185 187 187
163 215 199 211 173 197 165 215 201 258 161 183 142 189 182 152 181 189 174 168 178 196 183 182 234 185 241 229 206 223 218 211 213 225 232 242 251 238 198 201 186 196 191 191 191
240 267 235 163 173 177 197 153 189 153 342 163 125 135 185 212 187 199 178 181 169 170 191 174 203 173 235 207 180 236 230 227 214 224 220 228 240 144 201 191 187 191 196 193 191